Regional Weather Roundup
Issued by NWS

Home | Current Version | Previous Version | Text Only | Print | Product List | Glossary On
Versions: 1 2 3 4 5 6 7 8 9 10 11 12 13 14 15 16 17 18 19 20 21 22 23 24 25 26 27 28 29 30 31 32 33 34 35 36 37 38 39 40 41 42 43 44 45 46 47 48 49 50
000
ASUS44 KOUN 060110
RWROK

WEATHER ROUNDUP FOR OKLAHOMA
NATIONAL WEATHER SERVICE NORMAN OK
700 PM CST FRI FEB 05 2016

NOTE: "FAIR" INDICATES FEW OR NO CLOUDS BELOW 12,000 FEET WITH NO
      SIGNIFICANT WEATHER AND/OR OBSTRUCTIONS TO VISIBILITY.

OKZ001>007-009>012-014-015-017-060200-
NORTHWEST OKLAHOMA AND THE PANHANDLE

CITY           SKY/WX    TMP DP  RH WIND       PRES   REMARKS
GAGE           CLOUDY    42  26  53 N12       30.28R
GUYMON         CLEAR     33  18  53 N7        30.31R WCI  27
ENID/WOODRING  MOCLDY    48  32  53 CALM      30.25R
$$

OKZ016-021>023-033>039-044-045-060200-
SOUTHWEST OKLAHOMA

CITY           SKY/WX    TMP DP  RH WIND       PRES   REMARKS
LAWTON/REGL    CLOUDY    51  27  39 SE13      30.19S
LAWTON/FT SILL CLOUDY    51  28  40 SE12      30.17F
FREDERICK      MOCLDY    47  25  42 NW8       30.16R
CLINTON        CLOUDY    46  25  43 NE6       30.21R
HOBART         CLEAR     46  24  42 W3        30.19R
ALTUS AFB      CLEAR     47  18  32 W5        30.18R
$$

OKZ018>020-024>031-060200-
CENTRAL OKLAHOMA

CITY           SKY/WX    TMP DP  RH WIND       PRES   REMARKS
OKLAHOMA CITY  CLOUDY    50  26  39 SW12      30.24R
OKC/WILEY POST CLOUDY    51  25  36 SE10      30.25R
OKC/TINKER AFB CLOUDY    49  24  37 S9        30.24R
STILLWATER     CLOUDY    49  26  41 S3        30.26R
GUTHRIE        CLOUDY    50  26  39 S5        30.26R
$$

OKZ008-013-054>072-060200-
NORTHEAST OKLAHOMA

CITY           SKY/WX    TMP DP  RH WIND       PRES   REMARKS
TULSA          CLOUDY    50  25  37 S9        30.27R
TULSA/JONES    PTCLDY    50  25  37 SE8       30.29R
PONCA CITY     CLOUDY    48  26  42 CALM      30.26R
BARTLESVILLE   CLOUDY    47  24  40 S5        30.28S
MUSKOGEE       CLEAR     44  23  43 SE6       30.32R
$$

OKZ032-040>043-046>053-073>077-060200-
SOUTH CENTRAL/SOUTHEAST OKLAHOMA

CITY           SKY/WX    TMP DP  RH WIND       PRES   REMARKS
ARDMORE/DWNTWN CLOUDY    50  23  34 SE9       30.27S
MCALESTER      MOCLDY    49  22  34 SE8       30.31R
$$




USA.gov is the U.S. government's official web portal to all federal, state and local government web resources and services.